Weather in Parkes

Australia     33°08′14″S   148°10′27″E
temp.,
°C
wind,
m/s
gust,
m/s
humid.,
%
clouds,
%
prec.,
mm/h
press.,
hPa
HPBL,
m
8 may, sat
sat801:00+13ssw008851 0.0 101311
04:00+13wsw11896 0.0 101310
07:00+12ene1189100 0.0 101511
10:00+18wsw2268100 0.0 1015409
13:00+21wsw3453100 0.0 10141131
16:00+20wsw345696 0.0 1014413
19:00+16w0164100 0.0 101611
22:00+15wsw1161100 0.0 101812
9 may, sun
sun901:00+16ene1152100 0.0 101811
04:00+15sse115475 0.0 101819
07:00+13ne116099 0.0 101910
10:00+18sse11475 0.0 1019428
13:00+21sw21415 0.0 10171295
16:00+21wsw22485 0.0 1016621
19:00+15s00612 0.0 101811
22:00+14ene11650 0.0 101811
10 may, mon
mon1001:00+13ne22690 0.0 101713
04:00+12nne22753 0.0 101624
07:00+12n33856 0.0 101743
10:00+18nnw57615 0.0 1016539
13:00+21wnw6853100 0.3 10141555
16:00+15wsw51185100 2.4 1014583
19:00+13w129646 1.3 101644
22:00+12wsw22945 1.3 101822
11 may, tue
tue1101:00+12sse1191100 0.0 101859
04:00+10ssw119290 0.0 101811
07:00+9ssw119597 0.0 102111
10:00+13ssw2280100 0.0 1022509
13:00+15sw2156100 0.0 10201083
16:00+15ssw2354100 0.0 10201096
19:00+11ssw2269100 0.0 102328
22:00+11e2269100 0.0 102442
12 may, wed
wed1201:00+12e51271100 0.0 1024600
04:00+13e61266100 0.0 1025640
07:00+12ese4116867 0.0 1026576
10:00+16e69555 0.0 10261006
13:00+19e674629 0.0 10241697
16:00+18e685375 0.0 1024869
19:00+14ene614690 0.0 1026600
22:00+12e412753 0.0 1027402